TimeEDT,TemperatureF,Dew PointF,Humidity,Sea Level PressureIn,VisibilityMPH,Wind Direction,Wind SpeedMPH,Gust SpeedMPH,PrecipitationIn,Events,Conditions,WindDirDegrees,DateUTC
12:53 AM,72.0,53.1,51,29.76,10.0,SW,12.7,24.2,N/A,,Mostly Cloudy,220,2012-10-15 04:53:00
1:53 AM,71.1,53.1,53,29.73,10.0,South,10.4,23.0,N/A,,Mostly Cloudy,190,2012-10-15 05:53:00
2:53 AM,70.0,55.0,59,29.71,10.0,SSW,9.2,18.4,N/A,,Overcast,210,2012-10-15 06:53:00
3:53 AM,68.0,55.9,65,29.70,10.0,SSW,13.8,25.3,N/A,,Partly Cloudy,200,2012-10-15 07:53:00
4:22 AM,62.6,57.2,82,29.76,2.0,WSW,11.5,24.2,0.08,Rain,Rain,240,2012-10-15 08:22:00
4:32 AM,62.6,57.2,82,29.76,4.0,Variable,5.8,23.0,0.10,Rain,Rain,0,2012-10-15 08:32:00
4:53 AM,61.0,57.0,87,29.74,9.0,Variable,4.6,-,0.12,Rain,Light Rain,0,2012-10-15 08:53:00
5:23 AM,60.8,57.2,88,29.77,10.0,SSW,4.6,-,0.00,,Overcast,210,2012-10-15 09:23:00
5:53 AM,61.0,57.9,90,29.75,10.0,SSW,5.8,-,0.00,,Overcast,210,2012-10-15 09:53:00
6:19 AM,60.8,57.2,88,29.79,6.0,Variable,3.5,-,0.00,Rain,Light Rain,0,2012-10-15 10:19:00
6:53 AM,60.1,55.9,86,29.77,10.0,Variable,6.9,-,0.01,,Overcast,0,2012-10-15 10:53:00
7:17 AM,60.8,55.4,82,29.79,10.0,WSW,3.5,-,N/A,,Overcast,240,2012-10-15 11:17:00
7:53 AM,60.1,55.0,83,29.78,10.0,Calm,Calm,-,N/A,,Overcast,0,2012-10-15 11:53:00
8:53 AM,59.0,54.0,83,29.79,10.0,WSW,3.5,-,N/A,,Overcast,240,2012-10-15 12:53:00
9:53 AM,57.9,53.1,84,29.80,10.0,SW,5.8,-,0.00,,Overcast,230,2012-10-15 13:53:00
10:53 AM,57.9,52.0,81,29.82,10.0,Calm,Calm,-,N/A,,Overcast,0,2012-10-15 14:53:00
11:53 AM,59.0,50.0,72,29.81,10.0,West,5.8,-,N/A,,Overcast,270,2012-10-15 15:53:00
12:32 PM,60.8,48.2,63,29.83,10.0,West,10.4,-,N/A,,Overcast,280,2012-10-15 16:32:00
12:53 PM,59.0,48.0,67,29.81,10.0,WNW,5.8,-,N/A,,Overcast,300,2012-10-15 16:53:00
1:31 PM,62.6,48.2,59,29.81,10.0,Variable,6.9,-,N/A,,Mostly Cloudy,0,2012-10-15 17:31:00
1:53 PM,62.1,46.9,58,29.78,10.0,West,8.1,18.4,N/A,,Clear,270,2012-10-15 17:53:00
2:53 PM,59.0,46.9,64,29.78,10.0,West,10.4,-,0.00,Rain,Light Rain,270,2012-10-15 18:53:00
3:53 PM,59.0,46.9,64,29.79,10.0,SW,9.2,-,0.00,,Overcast,230,2012-10-15 19:53:00
4:53 PM,57.0,45.0,64,29.82,10.0,West,8.1,18.4,N/A,,Overcast,270,2012-10-15 20:53:00
5:28 PM,57.2,46.4,67,29.84,10.0,West,6.9,18.4,N/A,,Overcast,270,2012-10-15 21:28:00
5:48 PM,55.4,46.4,72,29.85,10.0,West,11.5,19.6,0.00,Rain,Light Rain,270,2012-10-15 21:48:00
5:53 PM,54.0,48.0,80,29.84,9.0,West,8.1,19.6,0.00,Rain,Light Rain,260,2012-10-15 21:53:00
6:29 PM,53.6,48.2,82,29.86,10.0,Calm,Calm,-,0.01,,Overcast,0,2012-10-15 22:29:00
6:53 PM,53.1,48.0,83,29.87,9.0,West,8.1,-,0.02,Rain,Light Rain,260,2012-10-15 22:53:00
7:49 PM,51.8,46.4,82,29.89,10.0,West,5.8,-,0.00,,Overcast,260,2012-10-15 23:49:00
7:53 PM,52.0,46.0,80,29.89,10.0,Variable,5.8,-,0.00,,Overcast,0,2012-10-15 23:53:00
8:53 PM,50.0,46.9,89,29.91,5.0,Variable,4.6,-,0.01,Rain,Light Rain,0,2012-10-16 00:53:00
9:53 PM,50.0,46.0,86,29.92,10.0,West,4.6,-,0.01,,Overcast,260,2012-10-16 01:53:00
10:53 PM,51.1,46.0,83,29.93,10.0,WSW,4.6,-,N/A,,Overcast,240,2012-10-16 02:53:00
11:12 PM,50.0,46.4,87,29.92,10.0,Variable,5.8,-,N/A,,Overcast,0,2012-10-16 03:12:00
11:50 PM,50.0,46.4,87,29.92,10.0,Calm,Calm,-,N/A,,Overcast,0,2012-10-16 03:50:00
11:53 PM,50.0,46.0,86,29.92,10.0,Variable,3.5,-,N/A,,Overcast,0,2012-10-16 03:53:00